Regional Weather Roundup
Issued by NWS

Home | Current Version | Previous Version | Graphics & Text | Print | Product List | Glossary On
Versions: 1 2 3 4 5 6 7 8 9 10 11 12 13 14 15 16 17 18 19 20 21 22 23 24 25 26 27 28 29 30 31 32 33 34 35 36 37 38 39 40 41 42 43 44 45 46 47 48 49 50
576
ASUS45 KBOU 180307
RWRCO

WEATHER ROUNDUP FOR COLORADO
NATIONAL WEATHER SERVICE DENVER/BOULDER CO
900 PM MDT THU AUG 17 2017

NOTE: "FAIR" INDICATES FEW OR NO CLOUDS BELOW 12000 FEET WITH NO
SIGNIFICANT WEATHER AND/OR OBSTRUCTIONS TO VISIBILITY.

COZ001>005-013-030-031-180400-
...NORTHWEST COLORADO...

CITY           SKY/WX    TMP DP  RH WIND       PRES   REMARKS
CRAIG          FAIR      65  32  29 SW7       30.22R
HAYDEN         FAIR      67  32  27 S6        30.26R
MEEKER         FAIR      69  38  32 SW7       30.24R
RABBIT EARS PA FAIR      52  32  46 W12G18    30.53S
STEAMBOAT SPGS FAIR      65  36  34 CALM      30.26R
WALDEN         FAIR      59  32  36 SW8       30.36R
$$

COZ006>008-011-180400-
...WEST CENTRAL VALLEYS...

CITY           SKY/WX    TMP DP  RH WIND       PRES   REMARKS
GRAND JUNCTION FAIR      76  30  18 NE6       30.09R
MONTROSE       FAIR      71  43  36 S7        30.20R
EAGLE          FAIR      69  36  29 CALM      30.28R
RIFLE          FAIR      72  33  24 SE6       30.17R
DELTA          FAIR      76  33  20 N7        30.15R
NUCLA          FAIR      79  23  12 NW3       30.23R
$$

COZ017>023-064>068-180400-
...SOUTHWEST COLORADO...

CITY           SKY/WX    TMP DP  RH WIND       PRES   REMARKS
DURANGO        FAIR      69  31  24 NE6       30.27R
CORTEZ         FAIR      66  34  30 CALM      30.20R
PAGOSA SPRINGS MOCLDY    65  30  26 W5        30.36R
TELLURIDE      FAIR      59  34  40 SE9       30.48R
WOLF CREEK PAS CLOUDY    46  30  53 SW5       30.72R
$$

COZ009-010-012-014-032>034-037-058>063-180400-
...CENTRAL COLORADO...

CITY           SKY/WX    TMP DP  RH WIND       PRES   REMARKS
ASPEN          FAIR      56  42  59 SW8       30.36R
BUENA VISTA    FAIR      58  35  41 W5        30.38R
COPPER MTN     FAIR      50  32  50 W16       30.65R
BERTHOUD PASS  FAIR      41  36  81 NW35G41   30.63S
COTTONWOOD PAS FAIR      59  28  31 CALM      30.51R
GUNNISON       FAIR      61  38  42 NW3       30.36R
KREMMLING      FAIR      63  39  42 CALM      30.32R
LEADVILLE      FAIR      47  37  68 N6        30.50R
MONARCH PASS   FAIR      48  27  43 W10       30.77R
SALIDA         FAIR      66  35  32 SW3       30.42R
SUNLIGHT       FAIR      50  30  46 W5        30.60R
WILKERSON PASS FAIR      50  30  46 NW8G18    30.63R
$$

COZ069>075-180400-
...SAN LUIS VALLEY/SANGRE DE CRISTO MOUNTAINS...

CITY           SKY/WX    TMP DP  RH WIND       PRES   REMARKS
ALAMOSA        FAIR      66  36  32 NW6       30.34R
DEL NORTE      FAIR      62  36  37 W9        30.38S
LA VETA PASS   NOT AVBL
SAGUACHE       FAIR      61  39  44 N8        30.37R
$$

COZ035-036-038>040-180400-
...NORTHERN COLORADO FRONT RANGE...

CITY           SKY/WX    TMP DP  RH WIND       PRES   REMARKS
DENVER INTL AP FAIR      65  43  44 S12       30.12R
DMNS CITY PARK   N/A     71  42  35 E7        30.12S
AURORA         PTCLDY    68  46  44 S10       30.15R
FRONT RANGE AP FAIR      68  46  45 SE8       30.14S
ERIE MUNI ARPT FAIR      70  38  31 CALM      30.15R
BOULDER MUN AP FAIR      73  39  29 CALM      30.11R
CENTENNIAL     FAIR      71  41  33 SW13      30.16S
BROOMFIELD     PTCLDY    70  37  30 W8        30.15R
FORT COLLINS   FAIR      70  49  47 NW3       30.11R
LONGMONT       FAIR      67  49  52 NW6       30.12R
$$

COZ041-046-047-076>085-087-088-180400-
...PIKES PEAK/PALMER DIVIDE AND SOUTHERN FOOTHILLS...

CITY           SKY/WX    TMP DP  RH WIND       PRES   REMARKS
COLO. SPRINGS  FAIR      67  46  47 W5        30.23R
A. F. ACADEMY  FAIR      59  50  71 N6        30.24R
SCHRIEVER AFB  FAIR      60  47  61 CALM      30.24R
CHEYENNE MTN   FAIR      69  38  32 W9        30.23R
ELLICOTT       FAIR     N/A N/A N/A CALM      30.21R
FALCON         FAIR      60  42  52 W6        30.28R
FORT CARSON    FAIR      65  46  49 W12       30.20R
LIMON          FAIR      62  51  67 CALM      30.14S
MONUMENT HILL  FAIR      59  43  55 SW12      30.29R
CANON CITY     CLEAR     72  50  46 N7        30.18R
WALSENBURG     FAIR      66  46  48 N7        30.26R
TRINIDAD       FAIR      71  45  39 N10G30    30.20R
$$

COZ042>045-048>051-090-091-180400-
...NORTHEAST COLORADO...

CITY           SKY/WX    TMP DP  RH WIND       PRES   REMARKS
GREELEY ARPT   FAIR      68  54  60 SE6       30.08R
AKRON          FAIR      67  47  48 S3        30.07R
BURLINGTON     FAIR      68  52  56 SW6       30.06R
WRAY           NOT AVBL
YUMA           FAIR      63  43  48 S6        30.03R
STERLING       FAIR      66  52  59 W7        30.01R
HOLYOKE        FAIR      63  55  77 S7        30.01R
FORT MORGAN    FAIR      71  41  34 W7        30.06F
$$

COZ086-089-092>099-180400-
...SOUTHEAST COLORADO...

CITY           SKY/WX    TMP DP  RH WIND       PRES   REMARKS
PUEBLO         FAIR      76  47  35 SE7       30.11S
LA JUNTA       FAIR      71  49  45 W8        30.08R
LAMAR          FAIR      68  54  60 CALM      30.02R
SPRINGFIELD      N/A     66  61  84 S16       30.08R
$$




USA.gov is the U.S. government's official web portal to all federal, state and local government web resources and services.